Temp
17 17 17 17 17 16 16 16 16 16 16 16 15 15 15 15 15 15 14 14 14 14 14 14 14 14 14 13 13 13 13 13 13 13 13 13 13 12 12 12 12 13 13 13 13 13 13 13 13 14 14 14 14 14 14 14 14 13 13 13 13 13 13 12 9 8 8 9 9 9 9 9 8 8 8 8 8 8 8 8 8 8 8 8 7
17 17 17 17 17 17 16 16 16 16 16 16 15 15 15 15 14 14 14 14 14 14 14 14 14 14 13 13 13 13 13 13 13 13 13 12 12 12 12 12 12 12 12 12 12 13 13 13 13 13 14 14 14 14 14 14 14 14 13 13 13 13 13 12 9 8 8 8 8 9 8 8 8 8 8 8 8 8 8 8 8 8 8 7 7
18 18 17 17 17 17 16 16 16 16 16 16 15 15 15 15 14 14 14 14 14 14 14 14 14 14 13 13 13 13 13 13 13 13 12 12 12 12 12 12 12 12 12 12 12 12 12 13 13 13 13 14 14 14 14 13 13 13 13 12 13 13 13 13 11 9 7 7 8 8 8 8 8 8 8 8 8 8 8 8 8 8 7 7 7
17 17 17 17 17 17 16 16 16 16 16 16 15 15 15 15 14 14 14 14 14 14 14 14 14 13 13 13 13 13 13 13 13 12 12 12 12 12 11 11 11 11 11 12 12 12 12 12 13 13 13 13 14 13 13 12 12 13 12 12 13 13 12 13 12 10 8 7 8 8 8 8 8 8 8 8 8 8 8 8 8 8 7 7 7
17 17 17 17 17 17 16 16 16 16 16 16 15 15 15 14 14 14 14 14 14 14 13 13 13 13 13 13 13 13 13 13 12 12 12 12 11 11 11 11 11 11 11 11 11 12 12 12 12 13 13 13 13 13 12 12 12 12 12 12 12 13 13 12 12 11 9 8 8 8 8 8 8 7 8 8 8 7 8 8 8 7 7 7 7
17 17 17 17 17 17 16 16 16 16 16 16 15 15 15 14 14 14 14 14 14 13 13 13 13 13 13 13 13 13 13 13 12 12 11 11 11 11 11 11 11 10 10 11 11 11 11 12 12 12 12 13 13 13 12 12 12 12 13 13 12 13 12 12 11 11 10 9 8 7 7 8 8 7 7 8 8 7 7 7 7 7 7 7 7
16 17 17 17 17 17 16 16 16 16 16 16 15 15 15 14 14 14 14 14 13 13 13 13 13 13 13 13 13 13 13 13 12 12 11 11 11 11 11 11 10 10 10 10 10 11 11 11 11 12 12 13 13 13 12 12 13 12 12 13 12 12 12 11 11 10 10 9 8 7 7 7 7 7 7 7 7 7 7 7 7 7 7 7 7
16 16 16 16 16 17 17 16 16 16 16 16 15 15 15 14 14 14 14 13 13 13 13 13 13 13 13 13 13 13 13 12 12 12 11 11 11 11 11 11 10 10 10 10 10 10 10 11 11 11 12 12 12 13 12 12 13 13 12 12 12 12 11 11 10 10 9 9 8 7 7 7 7 7 7 7 7 7 7 7 7 7 7 7 7
16 16 16 16 16 17 17 16 16 16 16 16 15 15 15 14 14 14 14 13 13 13 13 13 13 13 13 13 13 13 12 12 12 12 11 11 11 11 11 11 10 10 10 10 10 10 10 10 11 11 12 12 12 12 12 12 12 12 12 12 12 12 11 11 10 10 9 8 8 7 7 7 7 7 7 7 7 7 7 7 7 6 7 7 7
16 16 16 16 16 17 17 16 16 16 16 16 15 15 15 14 14 14 14 13 13 13 13 13 13 13 13 13 13 13 12 12 12 11 11 11 11 11 11 11 11 11 11 10 10 9 10 10 10 11 11 11 11 12 12 12 12 12 12 11 11 11 11 10 10 10 9 8 8 7 7 7 7 7 7 7 8 8 7 7 7 6 7 7 7
16 16 16 16 16 16 16 16 16 16 16 16 15 15 15 14 14 14 14 13 13 13 13 13 13 13 13 13 13 13 12 12 11 11 11 11 11 11 11 11 11 11 11 11 10 10 9 9 10 10 10 11 11 11 11 11 11 11 11 11 11 11 11 10 10 9 9 8 8 7 8 7 7 7 8 8 8 8 7 7 7 7 7 7 7
15 16 16 16 16 16 16 16 16 16 16 16 15 15 15 14 14 14 14 13 13 13 13 13 13 13 13 13 13 12 12 12 11 11 11 11 11 11 11 11 11 11 11 10 10 10 10 9 9 9 10 10 10 10 11 11 10 10 10 10 10 10 10 10 9 9 9 9 8 7 8 8 7 8 8 8 8 8 7 7 7 7 7 7 7
15 16 16 16 16 16 16 16 16 16 16 16 15 15 15 14 14 14 14 13 13 13 13 13 13 13 13 13 13 12 12 12 11 11 11 11 11 11 11 11 11 10 10 10 10 10 10 10 10 10 9 9 10 10 10 10 10 10 10 10 10 9 9 9 9 9 9 9 8 7 7 8 8 8 8 9 9 8 8 7 7 7 8 7 7
15 16 16 16 16 16 16 16 16 16 16 16 15 15 15 14 14 14 14 13 13 13 13 13 13 12 12 12 12 12 12 12 11 11 11 11 11 11 11 11 10 10 10 10 10 9 9 10 10 9 9 9 9 9 10 10 10 9 9 9 9 9 9 9 8 8 7 7 8 7 7 7 8 8 8 8 9 9 8 8 8 8 7 7 7
16 16 16 16 16 16 16 16 16 16 16 16 15 15 15 14 14 14 14 13 13 13 13 13 13 12 12 12 12 12 12 12 11 11 11 11 11 11 11 10 10 10 9 9 9 9 9 9 9 9 9 9 9 9 9 9 9 9 9 9 8 8 8 8 7 7 7 6 7 7 7 7 8 8 8 8 8 8 8 8 8 8 7 7 6
16 16 16 16 16 16 16 16 16 16 15 15 15 15 15 14 14 14 14 13 13 13 13 13 13 13 12 12 12 12 12 12 12 11 11 11 11 11 10 10 10 10 9 9 9 8 8 8 9 9 9 8 8 9 9 9 9 9 8 8 7 7 7 7 6 6 6 6 6 7 7 7 7 8 8 8 8 8 8 8 7 7 7 6 6
16 16 16 16 16 16 16 16 15 15 15 15 15 15 15 15 15 14 14 13 13 13 13 13 13 13 12 12 12 12 12 12 12 11 11 10 10 10 10 10 10 10 9 9 9 8 8 8 8 8 8 8 8 8 8 9 9 8 8 7 7 7 6 6 6 6 6 6 6 7 7 7 7 8 8 8 8 8 8 8 7 7 7 6 5
16 16 16 16 16 16 16 15 15 15 15 15 15 15 14 14 14 14 14 14 13 13 13 13 13 13 12 12 12 12 12 12 12 11 11 10 10 10 10 10 10 10 9 9 9 8 8 8 8 8 8 8 8 8 8 8 8 8 8 7 7 6 6 6 6 6 6 6 6 6 7 7 7 8 8 7 7 8 8 8 8 7 7 7 6
16 16 17 17 17 16 16 15 15 15 15 15 15 14 14 14 13 14 14 14 14 13 13 13 13 13 12 12 12 12 12 12 12 11 11 10 10 10 10 10 10 10 9 9 9 8 8 8 8 8 8 8 8 8 8 8 8 8 8 7 7 6 6 6 6 6 6 6 6 6 6 7 7 7 7 7 7 7 7 7 8 7 7 7 6
17 17 17 17 17 16 16 15 15 15 16 15 14 13 14 14 14 14 14 13 13 13 13 13 13 13 12 12 12 12 12 12 11 11 11 11 10 10 10 10 10 10 9 9 9 8 8 8 8 8 8 8 8 7 7 8 8 8 8 7 7 7 6 6 6 6 6 6 6 6 6 6 7 7 7 7 7 7 7 7 7 7 7 7 6
17 16 16 16 16 16 16 16 15 15 16 15 14 13 14 14 14 15 14 13 13 13 13 13 13 13 13 12 12 12 12 11 11 11 11 11 10 10 10 10 10 10 10 9 9 9 9 8 8 8 8 8 8 7 7 7 7 7 8 7 7 7 7 6 6 6 6 6 6 5 5 6 6 6 6 6 6 6 7 7 7 7 7 7 7
16 16 16 16 16 16 16 16 15 15 15 15 14 14 14 13 14 15 14 13 13 13 13 13 13 13 13 12 12 12 11 11 11 11 11 11 10 10 10 10 10 10 10 10 9 9 9 9 8 8 8 8 8 8 8 7 7 7 7 7 7 7 7 7 7 6 6 6 6 6 5 6 6 6 6 6 6 6 6 6 6 6 6 6 6
17 16 16 16 16 16 16 16 15 15 14 14 14 14 13 13 13 14 14 13 12 11 12 12 12 12 12 12 12 11 11 11 11 11 11 11 10 10 10 10 10 10 10 10 10 10 9 9 9 8 8 8 8 8 8 8 7 7 7 7 7 7 7 7 7 7 6 6 6 6 5 5 5 5 5 5 5 5 5 5 5 5 5 6 6
17 17 17 16 16 16 16 16 15 15 14 14 14 13 13 13 13 13 13 12 11 11 12 11 11 11 12 12 12 11 11 11 11 11 11 11 11 10 10 10 10 10 10 10 10 10 10 9 9 8 8 8 8 8 8 8 8 8 7 7 7 7 8 8 7 7 7 6 6 6 5 5 5 5 5 5 5 5 5 5 5 5 5 5 5
17 17 17 17 16 16 15 15 15 15 14 14 14 13 13 13 12 12 12 11 11 12 11 11 11 11 11 11 12 12 11 11 11 11 11 11 11 10 10 10 10 10 10 10 10 10 10 9 9 8 8 8 8 7 8 8 8 8 7 7 7 7 8 8 8 7 7 7 6 6 5 5 5 5 5 5 5 4 4 4 5 5 5 5 5
18 17 17 16 16 15 15 15 15 14 14 14 13 13 13 12 12 12 11 11 11 11 11 11 11 11 10 11 12 12 12 11 11 11 11 10 10 10 10 10 10 10 10 10 10 10 10 9 9 8 8 8 8 8 8 8 8 8 7 7 7 7 7 8 8 7 7 7 7 6 6 5 5 5 5 5 5 5 4 4 4 4 5 5 5
18 18 17 17 16 15 15 15 15 14 13 13 12 12 12 12 12 11 10 10 11 11 11 11 10 9 9 10 11 11 11 11 11 11 11 10 10 10 10 9 9 9 9 10 10 10 10 9 9 8 8 8 8 8 7 7 8 7 7 7 7 7 7 7 8 8 7 7 7 6 6 5 5 5 6 5 5 5 5 5 5 4 5 5 5
17 17 17 16 16 15 15 14 14 13 13 13 13 12 12 12 11 11 11 11 11 11 11 11 11 10 10 10 10 9 10 11 11 11 11 11 10 10 10 9 9 9 9 9 9 9 9 9 9 8 8 8 8 7 7 7 7 7 7 7 7 7 7 7 7 7 7 7 7 7 6 5 5 6 6 6 6 5 5 5 5 5 5 5 5
15 15 16 16 15 15 14 14 14 13 13 13 13 13 13 13 12 12 13 13 13 13 12 12 12 13 12 11 10 9 9 11 12 13 12 11 11 11 10 10 10 9 9 9 9 9 9 9 9 8 8 7 7 7 7 7 7 7 7 7 7 7 7 7 7 7 7 7 7 7 6 6 6 6 6 6 6 6 5 5 5 5 5 5 5
15 15 15 15 15 14 14 13 13 13 13 13 13 13 13 13 13 13 13 13 13 13 13 13 14 14 13 12 11 11 11 13 13 13 12 12 11 11 11 11 10 10 9 9 9 9 9 8 8 8 8 8 7 7 7 7 7 7 7 7 7 7 7 7 7 7 7 7 7 7 7 6 6 6 6 6 6 6 6 5 5 5 5 5 5
14 15 14 14 14 14 14 13 13 13 14 14 13 13 13 13 13 13 13 13 13 13 13 13 13 13 13 13 13 12 13 13 13 12 12 12 12 11 11 11 11 10 9 9 8 8 8 8 8 8 8 8 8 8 8 8 8 8 7 7 7 7 7 7 7 7 8 7 7 7 7 7 6 6 6 6 6 6 6 5 5 5 5 5 5
14 14 14 14 14 14 13 13 12 13 14 14 13 13 13 12 12 12 12 12 12 12 13 13 12 12 13 13 13 13 13 13 12 12 13 12 12 12 11 11 10 10 10 9 8 8 8 8 8 8 8 8 8 8 8 8 8 8 8 7 7 7 7 7 7 7 8 7 7 7 7 7 7 6 6 6 6 6 6 6 6 5 5 5 5
14 14 14 14 14 13 13 13 12 12 13 13 13 13 12 12 12 12 12 12 11 11 12 12 12 12 12 12 12 13 13 13 13 13 13 12 12 12 11 11 10 10 9 8 8 8 8 8 8 8 8 8 8 8 8 8 8 8 8 8 8 8 7 7 7 7 7 7 7 7 7 7 7 6 6 6 6 6 6 6 6 6 5 5 5
14 14 14 14 14 13 13 13 12 12 12 12 12 12 12 13 13 12 11 11 11 10 11 11 11 12 12 12 12 12 12 12 13 13 13 13 12 12 11 10 9 9 8 8 8 8 8 8 8 8 8 9 9 8 8 9 9 9 8 8 8 8 8 7 7 7 7 7 7 7 7 7 7 6 6 6 6 6 6 6 6 6 5 5 5
14 14 14 14 14 13 13 13 12 12 12 12 12 12 12 13 14 13 12 11 11 11 11 12 12 12 12 12 12 12 11 11 12 12 12 12 12 11 9 7 6 6 7 7 8 8 8 8 8 8 8 9 9 9 9 9 9 9 9 9 8 8 8 7 7 7 7 7 7 7 7 7 7 7 6 6 6 6 6 6 6 6 6 6 5
14 14 14 14 14 13 13 13 13 12 12 12 12 12 12 12 13 14 12 11 11 11 12 12 12 12 12 12 12 12 11 11 11 11 11 11 10 10 8 7 6 6 6 7 8 8 7 7 8 8 8 8 9 9 9 9 9 9 9 9 9 8 8 8 8 7 7 7 7 7 7 7 7 7 6 6 6 6 6 6 6 6 6 6 6
13 13 13 13 13 13 13 13 13 12 12 12 12 12 11 11 12 13 12 11 11 11 11 11 11 11 11 11 11 11 11 10 10 10 9 9 9 10 9 9 8 7 7 7 8 7 7 7 7 8 8 8 8 9 9 9 9 9 9 9 9 9 9 8 8 8 7 7 7 7 7 7 7 7 7 7 7 6 6 6 6 6 6 6 6
13 13 13 13 13 13 13 13 13 13 12 12 11 11 11 11 11 11 11 12 11 11 11 11 11 10 11 11 11 11 10 9 8 8 8 8 8 9 9 10 9 9 8 9 9 8 8 8 8 8 8 8 8 8 8 8 9 9 9 9 9 9 9 9 8 8 8 7 7 7 7 7 7 7 7 7 7 7 6 6 6 6 6 6 6
12 13 13 13 13 12 12 12 13 12 12 12 12 11 11 11 11 11 11 11 11 10 10 10 10 11 11 11 10 10 8 7 7 8 7 7 8 8 9 9 9 9 9 9 9 9 9 8 8 8 8 8 8 8 8 8 8 9 9 9 9 9 8 8 8 8 8 8 8 7 7 7 7 7 7 7 7 7 7 6 6 6 6 6 6
11 12 12 13 13 13 12 12 12 12 11 11 11 11 11 11 11 11 11 11 11 10 10 10 11 11 11 10 10 10 9 8 8 8 7 7 8 8 8 8 9 9 9 9 9 9 10 9 9 9 8 8 9 9 9 9 8 8 8 8 8 8 8 9 8 8 8 8 8 8 7 7 7 7 7 7 7 7 7 7 6 6 6 6 6
10 11 11 12 13 13 13 13 13 12 11 11 11 11 11 11 11 11 10 10 10 10 10 10 11 12 12 10 10 10 10 10 9 9 8 8 8 8 8 9 9 9 9 9 9 10 10 10 10 10 9 9 9 9 9 9 8 8 8 8 8 8 8 8 9 8 8 8 8 8 8 8 7 7 7 7 7 7 7 7 6 6 6 6 6
9 10 10 11 11 12 12 13 13 13 12 11 10 10 11 11 11 11 10 10 10 10 10 10 11 12 11 10 10 10 10 10 10 9 9 9 8 8 8 9 9 10 10 9 9 10 10 10 10 10 10 10 10 9 9 9 9 8 8 8 8 8 8 8 9 9 8 8 8 8 8 8 8 8 8 7 7 7 7 7 6 6 6 6 6
8 8 9 9 10 10 11 12 13 13 12 11 10 10 10 11 11 11 10 10 10 10 10 10 11 11 11 10 10 10 10 10 9 9 9 9 9 9 9 9 9 10 10 10 9 9 9 10 10 11 11 11 11 11 11 10 10 9 9 8 8 8 8 8 8 8 9 9 8 8 8 8 8 8 8 8 7 7 7 7 6 6 6 6 6
7 8 8 8 9 9 10 11 12 12 12 12 11 10 10 10 10 10 10 10 10 10 10 10 11 10 10 10 10 10 9 9 9 9 9 9 9 10 10 10 10 10 10 10 9 9 8 9 9 10 11 11 11 11 11 11 11 11 10 10 9 9 9 9 9 9 9 9 9 9 8 8 8 8 8 8 8 7 7 7 7 6 6 6 5
6 7 7 7 8 8 10 11 12 13 13 12 11 11 11 10 10 10 10 10 10 10 10 10 10 10 10 10 9 10 10 10 9 9 9 9 9 10 10 11 11 10 10 10 9 9 8 8 9 9 10 11 11 11 11 11 11 11 11 11 11 11 11 11 11 11 11 10 10 9 9 9 9 8 8 8 8 8 7 7 7 6 6 6 6
5 5 6 6 6 7 9 10 11 12 12 12 11 11 11 11 11 11 10 10 10 10 10 10 10 9 9 9 9 10 10 10 10 9 9 9 9 10 10 11 11 11 11 10 10 9 9 9 9 9 10 10 11 11 11 12 11 11 11 11 11 12 12 12 12 12 11 11 11 10 10 9 9 9 9 8 8 8 7 7 7 7 7 6 6
3 4 5 5 6 6 8 9 10 11 11 11 11 11 11 11 11 11 11 10 10 10 10 10 9 9 9 10 10 10 10 10 10 10 9 9 9 10 10 10 10 11 11 11 10 9 9 9 9 9 9 10 10 11 11 12 12 12 12 12 12 12 12 12 12 12 12 12 11 11 11 10 10 9 9 8 8 8 7 7 7 7 7 7 6
2 2 3 4 5 5 6 7 8 9 10 11 11 11 11 11 11 11 11 11 10 10 10 10 9 9 9 10 10 10 10 10 9 10 10 9 9 9 10 10 10 10 10 10 10 10 10 9 9 9 9 9 10 10 10 11 11 12 12 12 12 12 12 12 12 11 11 11 11 11 11 11 10 10 9 9 8 8 8 8 7 7 7 7 7
1 1 2 3 4 5 6 6 7 8 9 10 10 11 11 11 11 11 11 11 11 10 10 10 10 10 10 9 10 10 10 9 9 10 10 9 9 9 9 10 10 10 10 10 10 10 10 10 10 9 9 9 9 9 9 10 11 11 11 12 12 13 12 12 12 12 11 11 11 11 10 10 10 10 10 9 9 9 8 8 8 7 7 6 6
-0 1 1 2 3 5 6 6 6 7 8 9 9 10 11 11 11 11 11 11 11 11 11 11 11 11 10 10 10 10 9 9 9 10 10 9 9 10 9 9 9 10 10 10 10 10 10 10 10 10 10 10 9 9 9 10 10 11 12 12 12 12 12 12 12 11 11 11 10 10 10 10 10 9 9 9 9 9 8 8 8 7 7 6 6
-1 -0 1 2 3 4 5 6 6 7 8 9 9 10 10 10 11 11 11 11 11 11 11 11 11 11 11 11 10 10 10 10 10 10 9 9 10 10 10 9 9 9 10 10 10 10 10 10 10 10 10 9 9 9 9 10 11 11 12 12 12 12 11 11 11 11 11 10 10 10 10 10 9 9 9 9 8 8 8 8 7 7 7 7 6
Height
828 829 830 830 832 833 834 834 835 836 837 838 839 840 841 842 842 843 843 843 844 844 844 844 845 845 845 846 846 846 847 846 846 846 846 845 845 845 845 844 844 844 843 843 842 842 841 841 841 840 840 840 840 839 839 839 839 839 839 840 841 842 843 843 846 851 854 855 856 857 858 858 858 858 858 858 858 858 857 856 856 855 854 853 852
826 827 828 829 830 831 832 833 833 834 835 836 838 839 840 841 841 842 843 843 843 843 843 844 844 845 845 845 846 846 846 846 846 846 846 845 845 845 845 845 844 844 843 843 843 842 842 842 841 841 841 840 840 840 839 839 839 839 839 840 841 842 843 844 846 850 854 856 857 857 858 858 858 859 859 859 859 859 858 858 857 856 856 855 854
824 825 826 827 828 830 831 832 833 833 834 835 836 838 839 840 840 841 842 842 842 842 843 843 844 844 845 845 846 846 846 846 846 846 846 846 846 845 845 845 844 844 844 843 843 843 843 842 842 841 841 841 841 840 839 839 839 839 839 840 841 842 843 844 846 849 853 855 857 857 858 859 859 860 860 860 860 860 860 859 859 858 858 857 856
821 822 824 825 826 828 829 830 831 832 832 833 835 837 838 839 840 840 841 841 841 842 842 843 843 844 844 845 846 846 846 846 846 846 846 846 846 845 845 845 844 844 844 844 844 843 843 843 842 842 842 842 841 841 840 840 840 840 840 841 842 843 844 845 846 848 851 854 856 857 858 859 859 860 860 861 861 861 861 861 860 860 859 859 858
819 820 821 823 824 826 827 829 830 830 831 832 834 835 837 838 839 839 840 840 841 841 841 842 843 843 844 845 845 846 846 846 846 846 846 846 846 845 845 844 843 843 844 844 844 844 844 843 843 843 843 842 842 842 841 841 841 841 841 842 843 844 845 847 847 848 850 852 855 857 858 859 859 860 861 861 861 862 862 862 862 861 861 861 860
816 817 819 821 822 824 825 827 828 829 830 831 832 834 835 837 838 838 839 839 840 840 841 842 842 843 844 844 845 846 846 846 846 846 846 846 846 845 844 843 843 843 844 844 844 844 844 844 844 843 843 843 843 843 843 842 842 843 843 844 845 846 846 848 849 850 851 853 854 856 858 859 859 860 861 862 862 862 862 863 863 863 862 862 861
814 815 817 818 820 822 823 825 826 827 829 830 831 833 834 835 836 837 838 839 839 840 840 841 842 843 843 844 845 845 846 846 846 846 846 846 846 845 844 844 843 843 844 844 844 845 845 844 844 844 844 844 844 844 844 844 844 844 845 845 846 847 848 849 850 851 852 853 855 857 858 859 859 860 861 862 862 863 863 863 863 863 863 863 863
811 813 815 816 818 820 821 823 825 826 827 829 830 831 833 834 835 836 837 838 839 839 840 841 842 842 843 843 844 845 845 846 846 846 846 846 846 845 845 845 844 844 844 845 845 845 845 845 845 845 845 845 845 845 845 845 846 846 846 847 848 848 849 850 851 852 853 854 855 857 858 859 860 860 861 862 863 863 863 863 863 864 864 864 864
809 811 813 814 816 817 819 821 823 824 826 827 828 830 831 833 834 835 836 837 838 839 839 840 841 842 842 843 844 844 845 846 846 846 847 847 846 846 846 846 846 845 845 845 845 845 845 846 846 846 846 846 846 846 846 847 847 847 848 848 849 850 851 851 852 853 854 854 856 857 858 859 860 860 861 862 862 863 863 863 863 864 865 865 865
807 809 810 812 813 815 817 819 821 822 824 825 827 828 830 832 833 834 834 836 837 838 838 839 840 841 842 842 843 844 844 845 846 846 847 847 847 847 847 847 847 847 846 846 846 846 846 847 847 847 847 847 847 847 848 848 848 849 849 850 851 851 852 852 853 853 854 855 856 857 858 859 860 860 861 862 862 863 863 863 863 864 865 865 866
805 807 808 810 812 813 815 817 819 820 822 824 825 827 828 830 831 832 833 834 836 836 837 838 839 840 841 842 842 843 844 845 845 846 847 847 847 847 848 848 848 848 847 847 847 847 847 847 848 848 848 848 848 848 848 849 849 850 850 851 852 852 853 853 854 854 855 855 856 857 858 859 860 861 861 862 862 863 863 864 864 865 865 865 866
804 806 807 808 810 811 813 815 816 818 820 821 823 825 827 828 830 831 831 832 834 835 836 836 837 839 840 841 842 842 843 844 845 846 846 847 848 848 848 848 848 848 848 848 848 848 848 848 848 849 849 849 849 849 849 850 850 851 851 851 852 852 853 853 854 854 855 855 856 857 858 859 860 860 861 862 862 863 864 864 865 865 865 865 867
803 804 806 807 808 809 811 813 814 816 817 819 821 823 825 826 827 828 830 831 832 833 834 835 836 837 838 839 840 841 842 844 844 845 846 847 847 848 848 849 849 849 849 849 849 849 849 849 849 849 850 850 850 850 850 850 851 851 851 852 852 852 853 853 854 854 855 855 856 857 858 859 860 861 861 862 862 863 864 865 865 865 865 866 867
802 803 804 805 806 808 809 811 812 813 815 816 819 820 822 823 825 827 828 829 830 831 832 833 834 835 836 837 839 840 841 842 843 844 845 846 847 848 848 849 849 849 849 850 850 850 850 850 850 850 851 851 851 851 851 851 851 851 852 852 852 853 853 854 854 855 856 856 857 858 859 860 860 861 862 862 863 863 864 864 865 866 866 867 867
800 801 802 804 805 806 807 809 810 811 813 814 816 817 819 821 822 824 826 827 829 830 830 831 832 833 834 836 837 838 840 841 842 843 844 846 847 848 848 849 849 850 850 850 850 851 851 851 851 851 851 852 852 852 852 852 852 852 853 853 853 854 854 855 855 856 857 857 858 859 859 860 861 862 862 863 863 864 864 865 865 866 866 867 868
798 799 800 801 803 804 805 806 807 809 810 811 813 814 816 818 819 821 823 825 827 828 829 830 831 832 833 834 835 837 838 839 841 842 843 845 846 847 848 849 849 849 850 850 851 851 852 852 852 852 852 853 853 853 853 853 853 853 854 854 855 855 856 856 857 858 858 858 859 859 860 861 861 862 862 863 863 864 864 865 866 866 867 868 869
796 797 797 798 799 801 802 803 805 806 807 808 809 810 811 813 816 818 820 822 824 825 827 828 829 831 831 832 833 835 836 838 839 840 842 843 844 846 847 848 848 849 850 850 851 851 852 853 853 853 853 854 854 854 854 854 854 855 855 856 856 857 857 858 859 859 859 859 859 860 860 861 861 862 862 863 864 864 865 865 866 867 867 868 869
794 794 795 795 796 797 799 800 802 803 804 805 805 806 808 811 814 816 818 819 821 823 825 826 828 829 830 831 832 833 835 836 838 839 840 841 843 844 846 847 848 848 849 850 850 851 852 853 854 854 854 854 855 855 855 856 856 856 856 857 858 859 859 860 860 860 860 860 860 860 860 861 861 861 862 863 864 865 866 866 866 867 867 868 869
791 792 792 793 794 795 796 797 799 800 801 801 802 805 809 812 815 817 818 819 820 822 823 824 826 827 829 830 831 832 833 835 836 837 838 840 841 843 844 845 846 847 848 849 850 851 852 852 853 854 855 855 855 856 856 856 857 857 858 858 859 860 860 860 861 861 861 861 861 860 860 860 861 861 862 863 864 865 866 866 867 867 867 867 868
790 790 791 792 792 793 793 794 795 796 797 798 800 804 807 809 812 814 815 816 818 820 821 822 823 825 827 829 830 830 832 833 834 836 837 838 839 841 842 843 844 845 847 847 848 850 851 852 853 854 855 855 856 856 857 857 858 858 859 859 860 860 861 861 861 862 862 862 861 861 861 861 861 862 862 863 864 865 865 866 866 867 867 867 868
789 789 790 790 790 791 791 791 792 793 794 796 799 801 803 804 808 809 810 812 814 815 817 819 820 823 825 827 828 829 830 831 832 834 835 836 837 839 840 841 842 844 845 846 847 848 849 850 852 853 854 855 856 856 857 857 858 859 859 860 860 861 861 861 862 862 862 862 862 862 862 862 862 862 863 864 864 865 865 865 865 866 867 867 868
788 788 788 788 788 788 788 789 789 790 792 793 796 797 799 801 804 806 808 810 810 811 814 816 817 820 822 824 826 827 828 829 830 831 833 834 835 836 838 839 841 842 843 844 845 846 847 849 850 851 853 854 855 856 857 857 858 859 859 860 861 861 862 862 862 863 863 863 863 863 863 863 863 863 864 864 864 865 865 865 865 866 866 867 868
786 786 786 786 786 786 786 786 787 788 789 791 792 794 796 798 801 803 805 807 808 810 812 813 815 817 819 821 823 824 826 827 827 829 830 832 833 834 836 837 839 840 841 842 843 844 846 847 849 850 851 853 854 855 856 857 858 858 859 860 861 861 862 862 862 863 863 864 864 864 865 865 865 865 865 865 865 865 866 866 866 866 867 868 869
785 784 784 783 783 784 784 784 785 785 786 788 790 791 793 795 798 800 802 804 806 808 809 811 813 814 815 817 819 821 823 824 825 826 827 829 831 832 834 836 837 838 840 841 842 843 844 846 847 848 850 851 853 854 855 856 857 858 859 860 860 861 862 862 862 863 863 864 865 865 866 866 866 866 866 866 867 867 867 867 868 868 868 869 869
784 783 782 782 781 781 782 782 783 784 784 785 787 788 790 793 795 797 799 801 803 804 805 807 810 811 812 813 815 817 819 821 822 823 825 826 828 830 831 833 835 836 838 839 840 842 843 844 845 847 848 850 851 852 854 854 856 857 858 859 859 860 861 862 862 863 863 864 865 865 866 866 867 867 867 868 868 868 868 869 869 869 870 870 870
782 781 781 780 780 779 779 780 780 782 783 784 785 786 788 790 792 793 795 797 799 801 802 803 805 807 808 809 810 812 815 817 819 820 822 823 825 827 829 831 832 834 836 838 839 840 842 843 844 845 846 848 849 850 852 853 854 855 856 857 858 859 860 861 862 862 863 864 864 865 866 867 867 868 868 869 869 869 869 870 870 871 871 871 871
781 779 778 778 778 778 778 778 778 779 780 782 784 786 788 789 790 791 792 793 795 797 798 799 800 802 803 805 806 808 811 813 815 816 818 820 821 824 826 828 830 832 834 835 837 838 840 841 842 843 845 846 847 849 850 851 853 854 855 856 857 858 859 860 861 862 862 863 864 865 866 866 867 868 868 869 870 870 870 871 871 871 872 873 873
780 778 777 776 775 775 775 776 777 777 778 779 780 782 784 786 788 788 788 789 790 791 793 794 795 796 797 799 802 804 806 808 809 810 812 814 817 820 822 824 826 828 830 832 834 836 838 839 840 842 843 844 845 847 848 849 851 852 853 855 856 857 858 859 860 861 862 863 863 864 865 866 867 868 868 869 870 870 871 871 872 872 873 873 873
779 778 776 774 774 773 773 773 774 775 776 776 776 776 777 779 780 781 782 784 786 787 788 789 789 790 792 794 795 797 799 800 801 804 807 810 813 815 817 819 821 823 826 829 832 834 835 837 838 839 840 842 843 844 846 847 849 850 851 853 854 856 857 858 859 860 861 862 863 863 864 865 866 867 868 869 869 870 871 872 872 872 873 874 874
779 777 775 774 773 772 771 771 771 772 773 774 774 774 774 774 775 775 776 778 780 783 785 785 785 787 789 789 790 792 794 796 798 802 805 807 810 812 814 816 818 821 824 827 830 831 832 833 835 836 837 839 840 842 843 845 846 848 849 851 852 853 855 856 857 858 859 860 862 862 863 864 865 866 867 868 869 870 871 871 872 873 873 874 874
779 777 775 773 772 771 770 769 770 771 771 771 770 771 771 771 772 772 773 773 774 776 778 781 783 786 787 787 788 790 792 795 797 800 802 804 807 809 811 814 816 819 821 824 826 828 829 830 832 833 834 836 837 838 840 842 843 845 847 848 850 851 852 854 855 857 858 859 860 861 862 863 864 865 866 867 868 869 870 871 872 872 873 874 874
779 777 775 773 771 770 769 768 768 769 769 768 768 769 769 769 769 769 770 771 772 772 773 775 779 782 783 784 786 787 789 791 794 796 798 800 803 805 808 811 813 816 818 821 822 824 825 826 828 829 831 832 833 835 837 839 840 842 844 845 847 848 849 851 853 855 856 857 858 859 861 862 863 864 865 866 867 868 869 870 871 872 873 873 874
778 776 774 772 770 769 767 766 766 766 766 766 766 766 766 767 767 767 768 769 770 770 771 771 773 775 778 780 782 784 785 787 789 791 794 796 799 801 804 807 810 812 815 817 819 820 821 822 823 825 827 828 830 832 834 835 837 839 841 842 844 845 847 849 851 853 854 855 856 857 859 860 861 862 863 865 865 866 868 868 869 871 872 873 874
777 776 774 772 770 768 766 765 764 763 763 763 763 763 763 764 764 765 766 766 766 767 767 768 769 770 772 774 777 779 782 785 786 787 789 792 795 798 801 805 808 810 812 813 815 816 817 818 819 821 822 824 826 828 830 832 834 836 838 839 841 843 845 847 848 850 851 853 854 855 857 858 859 860 862 863 864 865 866 867 868 869 871 872 873
776 774 772 771 769 767 766 764 763 762 761 760 760 760 760 761 762 762 762 762 763 762 762 762 764 765 767 768 771 774 778 781 784 785 787 789 792 795 798 801 804 806 807 809 810 810 811 813 814 816 818 820 822 824 826 828 830 832 834 836 838 840 842 844 845 847 849 850 852 853 855 856 857 858 860 861 862 863 864 865 867 868 869 871 872
774 773 771 769 768 766 764 763 762 760 759 758 757 757 757 758 759 758 758 758 759 759 758 759 760 762 764 765 767 770 773 776 779 782 785 788 790 792 794 796 797 799 801 802 804 805 807 808 810 812 814 816 818 820 823 825 827 829 831 833 835 837 839 840 842 844 846 847 849 851 852 854 855 856 858 859 860 861 862 864 865 867 868 870 871
773 771 769 768 766 764 762 761 759 758 757 756 755 755 754 754 755 755 755 755 755 754 755 757 758 760 761 762 763 766 769 772 777 780 783 785 788 789 789 790 791 792 794 795 798 800 802 803 806 808 810 812 814 816 818 821 823 825 827 830 832 833 835 837 839 841 842 844 846 848 849 851 852 854 855 856 858 859 861 862 864 865 867 868 870
771 769 767 766 764 762 761 759 757 755 754 753 752 752 752 751 751 752 752 751 751 751 752 754 756 756 756 757 760 762 766 770 774 777 779 781 782 784 785 786 787 787 788 790 792 794 796 798 800 803 805 807 810 812 814 816 819 821 824 826 828 830 832 834 836 837 839 841 843 844 846 848 850 851 853 854 855 857 858 860 862 863 865 866 868
769 767 765 764 762 760 759 757 755 753 752 751 750 749 749 748 748 748 748 748 748 748 749 751 753 752 752 754 756 759 762 765 767 769 772 773 775 777 779 781 782 782 784 785 787 789 790 792 795 797 800 802 805 807 809 812 814 817 819 822 824 826 828 830 832 833 835 837 839 841 843 845 847 849 850 852 853 854 856 858 859 861 862 864 865
766 764 763 761 759 758 756 755 753 751 749 748 747 746 746 746 745 745 745 745 744 745 746 747 748 748 748 750 752 754 756 758 759 762 765 767 769 771 773 775 776 777 778 780 782 783 785 787 790 792 795 797 799 802 804 807 809 812 815 817 819 821 823 825 827 829 831 833 835 837 839 841 843 845 847 849 850 852 854 855 857 859 860 862 863
764 762 760 758 756 755 753 752 750 748 747 745 744 743 742 742 742 742 742 741 741 742 742 743 743 743 745 747 748 749 750 752 753 755 758 760 762 765 766 768 770 771 772 774 776 778 780 782 784 787 789 791 794 797 799 802 804 807 809 812 814 817 819 821 823 825 826 829 831 833 835 837 840 842 843 845 847 849 851 853 855 856 858 860 861
761 759 758 756 754 752 750 749 747 745 744 742 741 740 739 738 738 738 738 738 738 738 738 739 739 740 742 743 744 746 747 748 749 751 752 755 757 759 761 762 764 765 767 769 771 773 775 777 779 781 783 786 788 791 794 796 799 801 803 806 809 811 813 815 818 820 822 824 826 828 830 833 835 837 840 842 844 846 848 850 852 854 856 857 859
759 757 755 754 752 750 748 746 744 743 741 739 737 736 736 735 735 735 735 734 734 734 735 735 736 737 738 740 741 742 743 744 745 746 748 750 752 753 755 757 758 760 762 764 766 769 771 773 774 776 778 780 782 785 787 790 792 795 797 800 803 805 808 810 812 815 817 819 821 823 826 828 831 833 836 839 841 842 844 847 849 851 853 854 856
756 754 752 750 748 747 745 744 742 740 738 736 734 733 732 732 732 732 731 731 732 732 732 731 732 733 734 735 737 738 739 739 741 742 743 745 746 748 749 751 752 755 757 759 761 764 766 768 770 772 773 775 778 780 782 785 787 789 792 794 796 799 801 804 806 808 811 813 815 818 821 823 826 829 832 834 836 838 840 842 844 847 849 851 853
755 753 750 748 746 744 742 741 739 737 735 733 731 730 729 729 728 728 728 728 729 729 728 728 729 729 730 731 733 733 733 734 735 736 738 740 741 743 745 746 748 749 751 753 756 759 760 762 764 767 769 771 773 775 777 780 782 784 786 788 790 792 795 797 800 802 805 808 810 813 815 818 821 824 827 829 831 834 836 838 840 843 845 847 849
754 751 749 746 744 741 739 737 736 734 732 730 729 727 727 726 726 725 725 725 725 725 725 725 725 726 727 728 729 728 728 729 730 731 733 735 736 738 740 742 743 744 746 748 751 753 755 757 759 761 763 765 767 769 771 774 776 778 781 783 785 787 789 792 795 798 800 802 805 807 810 813 815 818 821 824 827 829 832 834 836 838 840 843 845
751 749 746 744 741 739 736 734 733 731 729 727 726 725 724 724 723 723 722 722 722 722 723 722 722 722 724 725 724 724 724 725 726 728 729 730 731 733 735 737 738 740 741 743 746 748 750 752 754 755 757 760 762 764 766 768 770 772 775 777 779 781 784 787 790 792 795 797 800 802 805 807 810 813 816 819 822 825 827 830 832 834 836 839 841
748 746 743 741 739 736 734 732 730 728 727 725 724 723 722 721 721 721 720 720 720 720 720 720 719 719 720 720 720 721 721 722 723 725 725 726 727 729 731 733 734 735 737 738 740 742 745 747 749 750 752 754 756 758 760 763 765 767 769 771 773 776 778 781 784 787 790 793 795 797 800 802 805 807 810 813 816 819 821 824 827 829 832 834 837
745 742 740 738 736 734 732 730 728 726 724 723 722 721 719 719 718 718 718 717 718 718 718 717 716 716 716 716 717 718 718 719 720 720 720 721 723 725 727 729 729 730 732 733 735 737 739 741 743 745 747 749 751 753 755 757 760 762 763 765 767 770 773 776 778 781 784 787 789 792 795 798 800 802 805 807 810 813 816 819 821 824 827 830 832
741 739 737 735 733 731 729 727 726 723 722 721 719 718 717 717 716 715 715 715 715 715 715 714 714 714 713 713 713 714 715 715 716 716 716 717 719 720 722 723 725 725 727 728 729 731 733 735 738 740 742 744 746 747 749 751 753 755 757 759 761 764 767 770 772 775 778 781 783 786 790 792 795 798 800 803 805 808 810 813 816 819 821 824 827
738 736 734 732 731 729 727 725 723 721 720 718 717 716 716 715 714 713 713 713 712 712 712 712 712 712 712 712 712 712 712 712 712 712 712 713 714 715 716 718 719 720 722 723 724 726 728 730 732 734 736 738 740 742 743 745 746 748 750 752 755 758 761 764 767 769 772 774 778 781 784 787 789 792 795 797 800 803 805 808 811 813 816 819 821
Wind_Speed
21 20 19 17 16 15 13 12 10 9 9 9 8 6 6 7 7 6 5 5 6 5 5 4 3 2 2 3 3 3 4 6 7 9 10 9 7 6 6 6 6 5 5 6 5 5 4 3 2 2 2 3 4 3 3 3 4 8 12 13 10 8 10 14 15 10 11 16 17 16 15 14 14 14 14 16 16 16 18 20 21 23 24 25 26
22 21 20 19 17 15 14 14 12 10 10 10 9 7 7 8 8 7 6 5 5 5 5 4 4 3 3 3 3 3 4 6 7 8 8 8 7 6 6 6 6 6 5 6 5 5 5 3 2 3 3 4 5 6 5 4 4 6 10 12 10 10 11 14 17 14 12 14 16 16 13 12 13 13 12 14 15 15 16 19 20 21 23 24 24
23 22 21 20 19 17 16 15 13 11 11 11 10 9 8 9 9 7 6 5 5 5 5 4 3 3 3 3 3 3 5 6 7 7 7 6 6 7 7 7 7 6 5 5 4 5 5 4 3 3 4 5 7 7 6 3 2 5 9 11 11 12 12 12 15 16 15 14 14 14 12 11 13 12 11 12 13 13 15 18 19 20 22 23 23
24 23 22 21 20 18 17 17 15 13 12 12 11 9 10 10 9 8 7 5 5 5 5 4 3 3 2 3 3 4 5 5 6 6 6 6 7 9 10 10 9 7 5 3 3 3 4 4 4 4 4 6 7 7 5 1 3 7 10 12 13 13 12 11 13 16 19 16 13 13 12 11 12 11 10 11 12 12 14 16 17 19 21 21 22
24 24 23 22 21 20 19 18 16 14 14 13 11 10 11 11 10 8 7 6 5 5 5 5 3 2 3 3 4 4 4 5 6 6 6 7 8 10 12 11 9 6 3 2 1 2 4 4 4 4 4 4 5 5 3 3 7 9 12 12 12 11 11 10 11 16 20 19 15 13 12 12 12 11 10 10 12 12 13 14 16 18 19 19 20
25 25 24 23 22 21 20 19 18 16 15 14 12 11 12 12 11 9 7 6 5 5 6 6 5 4 4 5 5 4 3 4 5 6 6 7 10 11 11 8 5 2 2 1 0 1 3 3 4 4 3 3 4 4 3 5 8 10 11 11 10 10 9 10 11 15 19 19 16 14 13 12 12 12 11 10 11 12 13 12 14 15 17 17 18
24 25 25 24 23 22 21 20 19 17 16 15 13 13 14 13 12 9 8 7 6 6 6 7 6 5 6 7 6 4 3 4 5 5 6 8 10 9 7 5 3 2 2 2 1 1 2 2 3 4 3 2 3 4 4 5 7 8 8 8 8 9 9 11 12 15 17 18 16 15 14 13 12 12 12 10 9 10 11 12 12 12 12 12 13
24 24 25 25 24 23 22 22 21 19 17 16 15 15 15 14 12 10 9 8 7 6 6 7 6 5 6 7 7 5 3 4 4 4 5 7 8 6 4 4 3 4 4 3 3 2 2 2 3 4 3 2 3 4 4 5 5 6 7 7 7 8 10 11 13 14 16 17 16 15 14 13 13 13 12 11 10 9 9 11 11 10 8 7 9
23 24 25 25 26 24 23 23 22 20 18 18 18 17 17 15 14 12 10 9 8 7 6 7 6 6 7 8 8 6 4 4 3 3 4 6 6 4 2 3 4 5 5 5 5 4 4 4 5 4 4 4 3 3 4 4 4 5 7 7 7 7 9 11 12 13 15 16 15 14 14 14 14 14 12 11 10 9 9 11 12 10 9 9 10
23 24 25 26 26 25 24 24 24 22 20 20 20 19 18 17 15 14 12 11 10 8 7 7 7 6 7 8 9 7 5 5 4 2 2 4 4 2 1 4 5 5 6 6 7 7 7 7 7 7 6 5 5 4 4 5 4 5 6 6 4 4 6 9 11 12 13 15 15 15 15 14 13 13 11 10 10 11 11 12 13 14 14 13 13
23 24 26 26 26 26 25 26 25 23 22 22 21 20 20 19 18 16 14 13 12 10 9 9 9 8 8 9 9 7 6 6 5 4 2 1 2 1 2 4 5 6 6 7 8 8 8 8 8 7 7 6 6 6 6 6 6 6 6 5 3 2 2 5 8 10 12 13 14 15 15 14 12 12 11 10 11 12 12 12 15 16 16 15 12
23 24 25 25 26 26 26 27 26 25 24 24 23 22 22 21 20 18 17 16 14 13 12 11 11 10 9 9 9 7 6 7 7 6 5 3 1 2 4 4 4 5 5 6 8 8 8 8 8 7 7 6 5 5 6 6 6 6 5 4 3 2 3 3 4 7 9 12 14 13 13 13 13 12 10 9 11 13 13 13 13 14 15 15 12
22 24 24 25 26 26 27 27 27 27 26 25 24 24 24 24 22 21 19 18 17 15 13 13 13 12 12 11 10 8 7 7 8 8 7 6 4 4 5 5 3 3 4 6 7 8 8 8 8 8 8 6 5 4 4 4 4 4 4 4 3 3 3 3 3 3 5 9 13 13 12 12 12 11 10 9 9 12 14 13 12 13 15 16 14
22 23 24 25 26 26 27 28 28 29 28 27 26 27 27 26 24 22 21 20 20 18 16 15 15 14 14 13 12 10 9 8 8 9 10 9 7 6 6 6 4 2 3 5 6 7 7 7 7 9 9 8 6 4 4 4 4 4 4 5 5 4 4 4 4 4 4 6 11 12 11 10 10 10 10 9 8 9 12 13 12 12 14 15 15
22 23 24 25 25 26 27 28 29 30 30 29 28 29 29 28 26 24 23 22 22 20 18 17 17 16 16 15 14 12 11 9 9 10 12 11 10 9 8 7 5 4 4 4 5 6 6 6 7 9 9 9 8 6 5 5 6 7 8 9 9 9 9 9 8 8 8 8 9 10 10 9 9 9 9 9 8 7 8 11 12 12 14 15 13
21 23 24 25 26 27 28 29 30 31 31 30 30 30 31 30 28 27 25 24 23 21 20 19 18 17 18 17 16 15 13 11 10 12 14 14 14 13 11 9 7 5 5 5 5 6 6 5 5 7 9 9 8 6 5 5 6 9 12 13 13 13 13 13 11 10 9 8 8 8 8 8 8 8 9 9 9 8 10 12 13 12 13 14 11
21 23 24 26 27 28 29 30 30 31 31 31 32 33 33 33 31 29 27 26 25 24 22 20 18 18 19 19 18 17 15 12 11 12 15 17 17 16 14 12 9 7 6 6 5 5 5 4 4 5 6 8 8 6 5 5 7 11 13 14 15 15 15 14 13 11 10 8 6 6 7 8 7 7 7 9 10 10 10 12 12 11 13 12 10
21 23 25 26 27 28 30 31 31 32 32 34 35 35 34 33 32 30 29 28 27 26 23 20 19 19 20 20 19 18 17 14 12 13 17 19 19 19 17 15 12 10 9 8 7 6 6 6 5 4 4 6 7 7 6 5 6 10 12 14 14 14 13 13 11 11 10 9 7 5 5 7 7 6 7 9 11 11 8 7 7 9 11 11 11
21 22 24 25 26 28 29 30 31 32 33 36 35 32 30 30 28 27 28 27 26 25 23 21 20 20 21 20 20 19 18 16 14 14 17 20 21 21 20 18 16 14 12 11 10 9 8 9 8 6 5 5 6 6 6 5 5 7 10 11 12 11 10 10 9 8 8 8 7 6 6 6 7 7 8 9 12 11 6 2 3 6 8 11 15
20 21 22 23 24 27 28 29 31 32 34 36 32 29 31 31 28 27 29 29 27 26 24 23 22 21 21 21 21 21 19 17 15 16 18 21 22 23 23 22 20 17 15 14 13 12 11 11 11 10 8 7 6 6 6 5 4 5 7 8 8 9 8 7 7 6 6 7 7 7 7 7 7 7 8 9 10 10 6 3 4 5 6 11 17
19 19 20 21 23 26 27 29 31 32 33 34 30 29 32 33 30 30 31 30 29 28 26 25 23 22 22 23 23 22 21 18 17 16 19 21 23 24 25 25 22 20 18 16 15 15 14 13 13 13 12 11 9 8 8 7 5 5 5 5 5 6 6 5 5 5 4 5 7 8 8 8 9 9 9 8 7 7 6 6 6 6 6 10 15
20 18 17 19 22 24 26 28 29 30 31 32 31 30 31 31 32 32 32 31 31 30 28 27 26 24 24 24 25 24 23 21 18 17 19 22 24 24 25 25 23 21 19 18 17 17 16 14 13 14 14 13 12 11 10 10 8 7 6 6 6 5 4 4 4 5 5 5 7 10 11 11 12 12 11 10 8 6 5 4 6 8 8 8 11
19 18 17 18 20 23 25 27 28 29 30 31 32 32 31 30 31 32 32 31 29 28 28 28 27 26 26 26 27 26 25 23 21 19 20 22 24 25 24 24 23 23 21 19 17 17 16 15 14 14 14 14 13 12 12 12 11 9 9 9 9 6 5 5 6 6 6 6 7 10 12 13 14 14 13 12 11 10 10 11 11 11 11 10 9
16 17 18 19 20 22 24 26 27 29 30 30 31 31 30 30 30 31 32 31 28 27 27 27 27 27 28 28 29 28 27 26 24 22 21 22 24 25 25 24 24 23 21 19 16 15 15 15 15 15 15 16 15 13 13 13 12 11 11 12 12 8 6 6 7 8 8 8 8 11 12 12 13 12 12 12 12 13 14 15 14 14 14 14 13
16 16 17 19 20 21 22 24 26 28 28 29 31 31 30 30 30 30 30 30 29 29 28 27 27 29 30 30 31 31 30 29 27 25 23 23 24 25 26 25 25 24 23 20 16 14 13 13 14 15 15 16 17 16 15 14 13 12 13 15 14 11 8 8 9 10 10 10 9 11 12 12 11 11 11 10 11 13 15 15 15 16 16 16 16
18 17 17 18 20 21 22 22 24 26 27 28 30 30 30 31 31 30 30 30 31 30 29 29 31 32 31 32 32 32 32 31 30 28 26 26 26 26 27 27 26 26 24 20 17 15 13 12 14 16 16 17 18 18 18 16 15 14 15 16 17 14 11 11 12 13 12 11 10 11 12 12 11 11 10 10 9 11 13 15 16 15 15 15 16
18 18 18 18 18 19 21 22 22 23 24 25 26 26 27 28 29 29 30 31 31 31 31 31 31 31 31 32 32 32 32 33 33 32 31 30 29 29 29 29 29 28 26 23 21 19 17 15 14 16 17 18 18 19 19 18 16 16 16 17 17 15 13 12 13 13 12 11 9 9 12 14 13 11 10 10 10 10 12 15 16 15 13 13 15
18 19 19 19 18 18 20 22 21 20 21 23 24 25 26 27 29 30 32 33 33 33 33 34 34 34 34 33 31 30 32 35 36 36 35 34 33 32 32 33 32 31 30 27 25 22 21 19 17 17 19 20 21 20 20 19 17 17 17 18 17 16 14 13 14 14 13 12 10 9 12 16 16 13 11 11 11 12 13 15 15 14 12 11 13
20 20 21 21 21 20 20 20 21 20 20 21 24 26 27 29 31 33 35 35 35 35 35 36 38 39 37 35 33 32 33 36 37 37 37 36 35 34 34 34 35 34 32 29 27 25 24 22 21 21 22 22 23 22 21 20 19 18 18 18 18 17 16 15 16 16 15 14 13 11 12 16 16 14 13 12 12 13 14 14 15 14 12 10 11
22 22 21 21 22 21 21 21 21 20 19 21 23 24 25 27 30 32 33 34 34 35 36 37 37 37 37 37 36 35 33 33 32 33 35 36 35 34 34 33 33 34 32 29 28 27 26 25 24 24 25 25 25 25 24 22 21 20 20 19 19 20 19 18 17 16 16 17 16 13 13 15 16 15 14 14 14 14 14 15 14 13 12 11 12
23 24 24 23 23 22 21 21 20 19 20 22 24 24 25 26 28 31 32 32 32 33 35 36 36 35 36 37 36 35 34 31 29 30 32 33 35 35 34 32 32 33 33 32 30 29 28 28 27 27 27 27 27 27 26 25 25 23 22 21 21 22 21 20 18 17 17 18 19 16 14 16 17 16 15 15 15 14 14 14 15 15 13 12 12
22 24 25 25 24 22 21 21 19 19 22 24 24 24 25 25 26 28 30 31 32 32 32 33 34 35 36 36 35 34 34 32 31 30 29 28 31 34 35 34 32 32 33 33 32 32 31 31 30 30 30 30 30 29 28 28 27 26 25 24 24 25 24 22 20 19 18 19 20 20 17 16 17 16 15 14 15 16 15 14 15 18 16 13 11
21 23 25 26 26 24 22 20 19 20 23 24 24 24 24 23 22 23 23 25 29 31 31 30 31 33 35 37 37 36 34 33 32 31 29 27 27 30 34 36 34 33 33 34 34 34 34 33 33 33 33 33 33 32 31 30 29 28 27 27 26 26 26 24 22 21 20 20 21 21 20 18 17 17 16 15 15 17 17 14 15 19 19 15 13
22 23 24 26 26 25 23 22 21 21 22 24 24 25 24 22 21 21 18 18 22 26 29 30 30 31 33 35 37 37 35 34 33 32 30 27 25 26 32 35 34 33 33 34 35 35 36 36 35 35 35 34 34 34 33 32 32 31 30 29 28 26 25 25 25 24 23 22 22 22 21 20 19 18 18 17 16 18 18 16 16 19 21 18 15
24 24 25 25 25 25 24 23 22 22 23 24 25 26 25 23 23 23 22 20 21 23 27 29 32 33 33 34 35 36 35 34 34 32 30 27 25 26 31 33 33 33 34 35 36 37 37 38 38 37 36 36 36 35 35 34 34 33 32 30 29 27 27 27 28 27 26 25 23 23 22 22 21 20 19 19 18 19 20 18 17 19 21 20 18
24 25 26 26 26 26 26 25 24 23 24 25 26 27 26 25 25 27 27 24 23 24 25 26 26 28 31 33 33 34 34 35 35 33 29 27 27 28 32 34 36 37 38 39 39 38 37 37 38 38 38 38 37 36 36 35 35 34 33 32 30 29 29 29 30 29 29 28 25 24 23 24 23 22 21 21 20 20 21 20 18 18 20 20 19
24 25 26 26 26 26 27 27 26 25 24 25 25 26 26 25 26 27 26 25 25 26 27 24 20 20 24 28 31 32 33 33 32 30 27 26 28 30 32 35 38 40 42 42 42 40 38 38 39 38 38 39 38 38 37 36 35 35 34 33 32 30 29 29 30 30 31 31 29 26 25 25 25 23 23 23 22 22 22 21 20 19 19 19 20
25 24 24 24 25 26 27 28 28 27 25 23 23 24 25 25 25 25 26 27 28 27 26 24 21 21 24 26 28 30 30 28 27 27 26 27 31 33 35 36 38 40 42 43 43 42 42 41 40 40 39 39 39 38 38 37 37 36 35 34 34 32 31 30 30 31 32 32 31 30 28 27 26 25 24 24 24 24 24 23 22 21 20 20 21
26 24 22 22 23 25 26 27 28 28 25 23 22 22 24 25 24 24 26 28 28 26 24 22 23 27 28 26 24 25 27 27 29 31 32 33 35 37 37 38 38 39 40 41 42 43 43 42 41 41 40 40 39 39 39 38 37 37 36 35 35 34 33 32 32 32 32 33 33 33 31 30 28 27 26 25 25 24 25 25 24 23 22 22 23
26 24 21 20 22 24 25 26 27 27 25 24 22 21 22 24 25 25 26 27 27 27 25 24 26 31 31 27 24 25 28 31 33 35 35 36 38 39 40 40 41 41 41 41 42 43 43 42 41 41 40 40 40 39 39 39 38 37 37 36 36 36 35 34 34 33 33 33 34 34 34 33 31 29 28 27 26 25 25 26 26 24 23 23 23
27 25 23 21 21 23 24 26 27 27 25 23 22 21 22 25 26 26 26 27 27 27 26 27 31 33 32 29 28 28 29 31 33 35 37 39 41 42 43 43 43 43 42 42 42 43 43 42 41 41 40 40 40 39 38 38 38 38 37 37 37 36 36 36 35 35 34 34 34 35 35 35 34 32 31 29 28 27 26 26 26 26 24 24 24
29 27 26 25 24 23 23 25 27 28 27 24 22 22 22 24 26 26 26 26 28 28 27 27 30 32 31 29 28 28 29 30 31 33 36 38 40 42 43 45 45 45 44 44 44 44 43 43 42 41 41 40 40 39 39 38 38 38 38 38 38 38 37 37 37 36 35 35 35 35 36 36 35 34 32 30 29 29 28 27 26 26 25 25 25
29 28 27 27 26 25 24 24 25 27 27 25 23 22 22 23 24 25 26 27 28 28 27 28 29 30 29 28 27 28 29 30 30 31 34 37 39 41 43 45 46 46 45 45 44 43 42 43 42 42 41 40 40 39 39 38 38 38 38 38 39 39 38 38 38 37 37 36 36 36 36 36 36 36 34 32 31 30 30 28 28 27 26 26 26
28 27 27 28 27 27 26 25 25 26 27 26 23 22 21 22 22 23 25 26 26 26 28 29 29 28 27 27 27 28 30 31 30 31 33 35 38 40 42 44 45 45 45 45 43 42 41 42 42 42 42 41 40 40 39 38 38 37 37 37 38 38 39 39 39 38 37 37 36 36 37 37 37 37 36 34 33 32 32 31 30 29 27 27 28
29 28 28 28 28 27 26 26 26 26 26 25 23 22 21 20 21 22 23 24 25 27 29 30 29 28 26 25 25 28 30 32 32 33 34 35 37 39 40 42 43 43 44 45 44 42 41 42 42 42 42 42 42 41 40 39 39 38 38 37 37 37 36 35 35 35 36 37 37 37 37 38 39 39 38 37 35 34 34 33 32 31 30 29 30
31 29 28 28 28 27 26 25 25 25 23 22 21 21 20 20 20 22 22 22 23 25 27 28 27 26 24 23 24 27 30 32 34 34 35 36 37 38 39 41 41 42 43 43 43 42 42 42 42 42 43 43 43 42 42 41 40 40 39 39 38 36 34 32 31 33 35 36 37 37 38 38 40 40 40 39 37 36 35 35 34 33 32 31 31
32 30 29 29 29 28 26 24 24 23 22 20 19 18 19 19 20 21 21 21 21 22 25 27 25 23 22 24 27 29 31 32 34 34 35 36 38 38 38 39 40 41 41 41 41 41 42 42 42 42 43 43 43 43 43 43 42 41 41 41 40 39 37 35 34 34 33 33 35 38 38 39 40 41 41 40 39 37 37 36 36 36 35 33 33
31 31 30 30 30 29 27 26 25 24 23 21 19 18 18 19 20 20 20 21 21 21 23 26 25 22 22 25 27 29 30 31 32 33 35 37 38 38 38 38 38 39 40 40 40 40 41 42 42 43 42 42 43 43 43 43 43 43 43 43 42 41 39 38 38 37 35 33 34 37 38 39 40 41 42 42 41 40 39 38 38 37 37 35 34
31 31 30 30 30 29 28 27 26 25 24 22 20 19 18 19 19 19 19 19 19 19 21 23 24 23 23 23 24 27 28 29 30 33 35 36 36 36 37 38 37 38 38 38 39 40 41 41 42 42 43 43 43 43 43 43 42 42 43 43 43 42 41 40 40 39 38 36 36 36 38 39 41 41 42 43 42 41 40 39 39 39 38 37 36
31 30 29 29 29 29 29 29 28 26 25 22 20 19 19 19 19 19 18 17 17 18 19 20 21 22 22 22 23 24 26 27 29 32 34 34 34 35 37 37 37 37 37 37 38 39 39 40 40 41 42 43 43 43 43 43 43 42 42 42 42 41 41 41 41 41 40 39 39 38 38 39 41 42 43 43 42 42 41 40 40 39 39 39 39
29 28 28 28 28 28 29 29 27 26 25 23 21 20 20 19 19 19 18 17 17 17 18 19 19 20 21 22 22 23 24 26 27 30 31 32 33 34 36 37 38 37 37 37 37 37 38 39 39 40 41 42 43 43 44 44 44 43 42 41 41 41 41 41 41 41 41 41 41 40 39 40 41 42 43 43 43 42 42 41 40 40 41 40 40
Wind_Direction
227 229 227 225 223 222 222 223 227 232 231 224 223 229 234 232 231 244 265 286 297 292 269 244 248 280 293 297 306 311 325 342 348 346 344 339 333 331 337 344 340 341 352 355 2 7 3 4 35 60 46 4 346 327 307 281 234 212 211 214 205 194 171 135 116 107 122 140 141 134 130 124 114 109 106 102 98 91 87 83 79 75 73 71 69
229 230 228 225 224 223 225 224 224 227 226 222 224 231 233 227 226 235 250 270 281 275 262 244 245 266 283 285 279 296 326 339 341 340 341 340 338 337 338 340 340 341 344 348 2 16 14 17 33 50 38 11 4 352 324 289 261 218 200 204 194 179 172 145 128 122 127 142 146 140 138 133 123 120 116 110 106 99 94 89 83 80 78 76 75
231 230 228 227 224 222 225 225 223 227 227 223 224 230 230 224 224 233 241 258 273 270 261 250 253 272 281 271 263 297 326 332 333 334 336 339 340 338 335 333 330 330 334 342 2 17 16 17 29 53 42 16 11 3 347 320 244 201 181 184 181 171 168 159 144 136 135 143 152 153 152 145 135 131 126 119 115 110 101 95 90 87 85 81 79
230 229 229 228 224 221 222 223 223 229 230 224 223 227 227 222 223 230 237 253 267 264 255 251 267 285 268 248 259 296 321 329 333 330 328 332 333 330 327 324 317 308 310 325 347 9 13 17 24 39 34 16 13 7 1 61 158 166 161 164 169 164 159 162 160 154 149 146 154 164 166 160 150 143 139 132 127 121 110 102 99 94 89 85 82
230 229 229 227 223 220 220 221 224 229 230 225 223 224 221 218 220 227 236 250 259 257 253 256 270 272 244 244 261 286 318 337 340 331 323 325 326 324 323 322 314 294 276 292 334 8 11 15 24 25 19 15 23 28 46 128 148 153 153 154 158 157 156 160 163 162 157 150 149 159 167 167 162 159 159 150 141 135 124 113 106 99 92 88 83
230 229 227 225 222 219 219 221 224 228 229 226 222 220 216 214 218 225 232 241 250 251 253 255 258 249 236 242 250 267 310 339 345 334 323 324 328 328 328 330 327 284 218 203 79 28 20 23 29 29 22 29 46 60 102 138 146 148 149 150 153 155 156 157 158 160 157 150 146 148 152 156 158 158 166 168 158 150 143 132 119 106 98 90 79
230 228 226 223 220 218 219 222 224 228 229 226 221 217 214 214 217 222 225 231 240 248 249 247 246 238 231 234 238 250 297 330 342 339 328 330 334 337 344 358 28 109 141 132 114 74 51 46 41 38 39 62 78 86 110 134 141 143 144 146 151 152 149 152 156 157 153 147 145 144 144 147 150 151 159 171 171 161 157 152 141 125 111 94 77
228 226 224 221 219 219 222 224 225 227 227 224 219 216 214 215 215 217 219 225 237 247 245 240 235 223 221 228 233 241 278 308 328 340 337 340 344 348 7 35 74 104 114 114 108 103 88 76 68 61 62 91 108 106 115 128 133 135 137 142 148 147 146 150 156 156 153 148 145 146 145 145 147 147 151 162 163 158 161 161 153 151 145 115 85
226 224 222 220 219 221 224 223 222 224 224 220 218 216 216 215 213 212 216 222 232 242 240 236 231 218 217 227 233 239 263 281 299 330 342 348 350 351 36 64 85 96 101 105 100 96 95 92 92 88 83 99 119 131 138 138 136 136 139 143 147 147 148 154 159 160 158 153 149 150 149 146 149 149 151 160 160 152 154 150 141 144 148 125 98
223 221 221 222 222 222 222 219 218 221 222 219 218 216 215 214 212 210 214 218 224 233 234 229 225 220 221 228 231 236 251 258 260 277 317 349 350 328 114 96 97 94 95 101 100 98 99 97 94 90 88 94 105 124 138 138 137 137 136 139 139 142 156 164 166 168 167 161 158 158 155 151 157 161 160 166 166 155 152 144 131 132 134 120 101
221 221 222 223 222 221 219 216 216 220 222 220 218 216 213 213 213 211 212 214 218 226 229 222 214 213 220 227 230 235 245 245 244 246 248 311 336 265 178 129 113 104 97 99 101 102 104 104 102 96 93 95 101 112 121 125 129 129 130 132 125 122 177 182 179 178 176 169 165 167 165 159 163 170 167 165 164 160 157 148 137 135 133 124 112
222 222 225 225 223 220 218 216 216 219 221 219 217 214 212 213 212 211 211 212 214 220 222 215 208 207 214 222 227 233 242 243 239 235 229 227 248 229 200 168 135 116 103 98 97 97 98 102 106 104 100 99 105 118 126 130 137 141 148 162 173 190 208 215 208 203 196 183 172 169 169 163 161 165 164 159 161 164 161 153 148 147 141 132 126
225 224 226 225 224 222 219 218 218 218 220 220 216 213 211 212 213 213 212 211 213 216 216 210 207 209 214 220 227 231 236 240 238 230 223 214 210 217 212 196 166 131 114 105 100 96 92 93 96 95 94 94 100 119 137 147 155 164 179 194 201 200 197 202 216 225 217 197 180 169 166 164 161 161 160 154 158 167 167 162 158 156 149 139 133
226 226 226 226 226 223 220 219 219 220 220 219 215 212 212 213 214 214 213 212 212 213 213 210 209 212 216 219 227 232 232 236 237 229 220 212 207 211 213 206 193 168 139 118 106 97 91 90 94 92 89 87 85 90 110 131 143 147 148 145 136 131 126 123 122 115 131 171 175 167 164 165 164 164 164 160 158 166 174 173 165 157 150 144 140
228 228 227 227 227 225 223 222 221 221 219 217 215 213 214 215 215 215 214 214 215 215 214 214 214 215 218 220 225 229 229 233 236 227 217 210 206 207 209 208 203 195 171 140 117 104 95 93 99 99 95 89 85 83 91 111 127 129 124 118 114 112 107 103 102 108 120 137 151 154 153 157 164 167 170 172 164 156 164 166 161 156 147 142 143
230 229 228 227 227 226 226 224 222 221 220 218 215 214 214 215 215 215 215 215 217 217 217 218 220 219 218 220 225 228 227 230 233 226 216 210 207 207 208 208 208 205 189 163 137 118 109 107 109 108 102 95 91 91 98 115 128 127 120 114 111 108 105 103 103 109 118 128 139 147 150 153 160 166 175 183 176 161 154 151 151 152 145 135 135
232 231 231 230 228 228 227 225 223 222 220 218 218 217 216 216 216 215 214 213 215 217 217 219 223 224 220 220 223 225 226 228 230 224 215 211 209 208 208 210 210 209 200 182 163 146 138 139 136 127 116 107 104 105 110 124 133 128 123 118 114 110 105 102 100 99 100 106 119 138 154 160 161 161 167 177 178 172 161 151 151 156 150 138 131
237 235 236 236 233 231 229 226 225 223 221 222 222 220 217 215 214 214 215 215 216 217 217 219 224 226 224 223 223 224 225 228 229 223 216 213 212 211 211 212 212 211 207 196 184 175 173 176 178 170 144 125 119 118 120 129 136 135 131 125 118 114 109 103 97 90 84 83 88 101 134 154 161 158 154 164 175 176 168 157 164 171 164 154 144
246 243 243 242 239 236 232 228 226 224 226 228 225 219 217 216 215 217 220 221 221 220 219 219 223 226 227 225 223 223 225 228 229 224 217 214 215 215 214 214 214 214 212 207 200 194 193 195 197 197 188 166 148 138 136 138 140 142 141 134 126 122 117 109 100 89 77 74 79 85 97 121 144 150 149 161 173 175 172 175 196 193 182 169 156
266 258 254 249 244 241 236 231 229 227 230 231 225 219 220 220 218 221 224 223 222 222 220 221 223 226 228 226 222 222 223 225 228 226 220 216 216 217 217 217 218 218 217 216 212 207 204 205 205 205 205 200 190 176 167 162 163 164 160 149 138 132 128 121 114 105 84 74 84 91 88 100 122 136 143 160 176 185 199 223 210 203 200 180 166
283 274 264 254 248 245 240 236 233 232 232 231 225 220 222 220 217 221 222 220 219 219 219 221 222 224 227 226 223 222 222 224 226 226 222 218 217 218 220 222 222 222 221 222 222 219 216 214 211 208 207 207 208 207 200 193 193 199 195 174 151 137 136 139 137 132 112 88 96 106 103 105 117 127 137 152 171 190 211 219 201 187 190 188 179
297 291 278 262 253 248 245 242 238 234 232 229 225 223 222 219 217 219 219 218 217 215 215 217 219 221 225 226 224 223 223 223 225 226 224 220 219 220 222 224 225 225 224 224 226 227 225 223 220 215 210 207 209 214 215 212 212 216 215 197 177 166 166 174 178 169 150 121 115 119 116 115 119 122 126 131 137 146 153 155 154 149 155 178 186
308 301 290 277 264 254 249 246 241 235 231 229 227 224 221 218 215 215 215 215 213 211 212 214 216 217 220 223 224 224 223 222 223 225 225 223 221 222 223 223 224 225 224 226 230 232 229 225 224 221 215 210 210 212 213 217 219 219 215 207 198 192 192 200 205 194 175 152 138 134 127 121 119 117 115 114 113 115 114 111 115 123 129 137 144
321 307 297 286 275 265 256 249 243 237 232 229 226 223 220 217 214 212 213 211 209 209 212 213 213 215 218 221 223 223 221 221 222 223 225 224 224 223 222 221 222 223 225 230 235 235 231 226 223 223 219 214 212 213 211 213 216 214 213 214 211 206 207 213 209 198 187 175 164 155 145 134 126 120 115 111 110 113 116 114 113 115 117 116 115
328 318 305 291 281 273 262 253 247 241 234 228 225 222 219 215 212 211 211 209 208 210 211 210 214 218 219 220 222 223 221 220 220 221 223 224 225 224 222 219 218 219 223 230 233 230 229 227 223 222 221 217 214 213 213 214 216 214 215 218 219 217 220 219 207 198 194 190 184 177 168 155 143 136 131 124 119 120 123 123 119 116 114 112 109
325 321 313 300 287 275 264 256 250 244 237 232 228 224 220 215 212 210 210 209 209 209 208 210 215 218 219 221 224 223 221 220 219 219 220 221 223 223 222 220 219 219 223 229 230 226 225 226 223 219 218 218 217 217 218 220 222 219 217 221 223 224 224 218 207 201 199 198 197 194 184 172 161 154 152 149 141 135 136 136 130 122 119 117 110
318 316 314 308 295 278 266 260 253 244 237 232 228 226 223 219 214 210 208 207 207 207 208 211 213 215 217 221 223 222 220 220 219 218 217 218 219 220 220 219 218 219 221 224 225 224 224 224 222 219 217 218 219 221 223 224 224 221 218 220 224 225 224 220 213 209 206 203 201 200 193 185 179 173 167 163 159 153 151 149 142 134 131 126 115
316 310 307 304 297 283 269 260 253 244 235 229 227 225 222 219 217 217 217 214 210 209 209 211 215 217 219 219 219 218 217 218 219 219 218 217 216 216 217 217 217 218 218 218 218 222 225 225 221 216 215 217 218 220 222 223 222 220 218 218 220 220 218 218 216 216 215 208 200 198 196 192 190 188 181 173 169 166 162 159 154 150 147 138 125
323 314 308 303 298 289 274 262 252 242 235 232 232 231 228 225 223 225 226 226 225 223 220 218 221 224 223 221 217 212 212 219 224 224 222 220 217 216 216 217 217 217 217 216 215 217 221 222 219 215 213 214 216 218 219 219 218 218 217 216 216 215 214 215 215 216 216 211 204 200 196 193 192 192 189 182 178 176 174 172 168 164 163 157 143
331 324 318 311 305 296 283 268 254 243 240 240 239 238 238 236 235 233 232 232 233 233 232 233 234 232 229 228 226 223 226 234 236 231 226 224 223 222 222 221 220 218 216 214 214 216 218 218 217 216 214 213 215 217 217 216 215 215 216 215 214 215 215 217 217 217 217 213 208 204 198 192 191 191 190 187 185 183 183 185 183 178 174 168 156
334 329 326 320 314 306 293 277 261 249 249 250 245 241 240 239 240 242 242 239 237 235 234 238 240 238 236 236 235 236 240 244 243 238 232 228 225 225 224 223 222 220 217 212 210 213 216 216 216 216 215 215 217 218 218 217 216 216 215 214 215 216 216 218 218 217 217 214 209 206 202 196 193 192 192 193 194 192 191 192 193 188 183 177 167
341 335 333 329 323 315 303 287 269 252 249 247 243 241 240 238 238 241 242 241 241 239 237 235 235 236 239 240 239 239 240 240 240 240 237 231 227 225 224 222 222 221 218 213 210 211 214 215 217 217 216 216 218 220 220 219 219 218 217 215 215 216 217 217 217 217 216 213 210 209 207 203 200 198 197 199 201 200 199 199 198 195 191 187 179
348 342 339 336 332 325 314 298 279 260 251 245 240 238 238 238 242 246 244 240 240 241 241 238 234 234 237 239 240 241 242 241 241 240 237 233 228 224 222 221 221 219 215 209 208 212 214 215 217 219 218 219 220 221 221 221 221 221 221 219 219 219 219 218 216 216 215 213 212 212 211 209 208 206 204 205 206 203 202 203 202 198 195 192 186
347 344 341 338 335 331 325 312 295 279 264 254 247 241 238 240 249 254 246 233 230 233 235 237 236 233 234 237 239 241 241 241 240 239 237 234 228 222 218 216 215 215 214 211 211 214 216 216 218 219 220 222 222 222 222 223 223 223 223 224 224 223 221 218 216 215 216 214 214 215 214 211 212 210 208 208 207 203 202 205 204 200 197 195 192
342 341 342 341 337 335 332 324 311 297 281 268 258 250 244 241 245 250 246 235 228 231 234 236 236 234 233 235 237 237 237 237 238 238 236 232 223 214 208 205 203 206 210 212 214 217 217 217 218 220 221 223 223 223 224 224 224 224 224 225 225 224 222 219 218 217 217 216 216 216 214 213 214 213 211 210 208 204 202 203 204 202 200 199 197
338 336 337 339 337 335 334 330 322 310 295 282 271 262 253 243 239 243 247 244 239 240 243 243 241 239 237 236 236 234 233 232 234 235 233 227 219 209 202 200 202 204 207 211 215 218 219 221 221 222 223 224 225 225 226 226 226 226 226 226 225 224 222 221 220 219 218 218 218 217 214 214 215 215 214 213 212 208 205 204 204 203 203 203 202
331 331 331 332 332 332 332 332 329 322 309 295 281 270 261 252 243 242 244 246 246 247 248 248 246 240 235 235 234 232 230 228 229 230 229 223 219 214 209 207 207 207 209 212 215 217 220 222 224 224 225 226 227 227 227 228 228 228 228 227 226 226 225 224 223 222 220 220 219 218 216 215 216 216 216 215 214 212 209 206 205 205 206 207 205
326 327 328 328 327 327 328 330 329 326 318 306 291 275 265 258 251 244 244 247 249 248 245 243 242 239 237 236 233 228 223 218 215 217 217 214 213 214 215 214 213 212 213 215 217 218 220 223 224 225 226 227 228 229 229 229 229 228 228 228 227 227 227 226 225 224 223 222 221 220 218 216 216 216 218 218 218 216 213 211 209 208 207 207 207
324 326 327 327 326 325 325 327 326 322 317 309 298 282 268 260 252 245 243 245 248 248 244 238 237 240 241 239 229 218 209 204 204 207 208 208 210 213 215 216 217 216 217 218 219 220 221 223 224 225 226 227 228 229 230 230 230 229 229 228 227 226 226 225 225 224 224 223 223 221 220 218 217 217 219 221 222 220 217 214 213 213 211 210 209
322 322 323 325 325 324 324 325 324 321 314 306 298 286 272 262 255 248 244 243 244 245 242 237 239 244 243 236 226 215 206 203 205 207 207 208 211 213 214 216 218 220 220 221 221 222 223 224 224 225 226 227 228 230 230 231 230 229 228 228 227 226 226 226 225 225 225 224 224 223 222 220 219 219 221 223 224 223 221 218 216 217 217 216 214
321 320 318 319 320 321 322 324 324 322 316 306 295 285 274 268 262 254 248 243 242 242 239 236 240 246 245 237 230 225 218 214 212 211 210 212 214 215 215 217 221 222 223 223 222 223 225 225 225 226 227 228 228 229 230 230 229 229 228 227 227 227 227 226 226 227 227 226 225 224 223 222 222 221 222 223 224 224 224 222 220 220 220 220 218
323 320 318 316 315 314 316 319 322 322 319 310 296 284 276 271 266 260 253 247 244 242 239 237 239 244 243 239 234 231 227 223 219 215 214 216 217 218 219 221 222 224 226 226 226 225 226 226 226 226 227 228 228 228 228 229 228 228 227 226 226 226 226 226 227 227 227 227 226 226 224 223 223 223 223 224 224 224 223 223 223 222 221 220 218
325 323 321 318 314 310 309 313 316 318 317 312 303 291 281 275 269 262 256 251 247 242 240 241 242 242 240 238 236 232 228 225 222 220 219 219 219 221 224 225 226 227 228 229 229 228 227 227 227 228 228 229 230 230 230 230 230 228 227 226 226 226 227 227 227 226 226 226 226 226 225 223 223 223 223 223 224 223 223 223 223 222 222 220 217
327 325 323 320 316 311 307 307 311 315 315 313 308 298 286 276 269 264 258 253 250 247 244 244 245 243 238 234 231 229 228 227 225 224 223 222 221 223 227 229 230 229 229 230 230 230 229 229 229 230 231 231 232 232 232 233 232 231 229 228 227 227 227 228 228 227 226 225 224 224 224 223 222 222 221 221 222 222 221 222 222 221 221 219 216
327 325 322 320 318 314 308 306 309 313 314 312 308 302 293 281 273 267 261 254 252 251 249 247 246 244 240 233 228 230 233 234 232 228 225 225 225 226 229 232 233 233 232 232 231 230 229 230 230 230 231 232 232 232 233 233 233 234 233 232 231 230 230 230 231 230 228 225 223 222 222 221 221 220 220 220 221 221 221 221 221 221 220 218 216
323 322 320 318 317 314 310 307 308 312 313 311 307 302 298 290 281 274 268 261 256 255 255 253 249 244 240 236 235 236 238 239 236 232 228 227 227 229 231 233 234 235 236 235 232 230 230 231 231 231 232 233 233 233 233 234 234 234 235 235 236 237 237 236 234 232 230 227 225 222 221 220 220 219 220 220 221 221 221 221 221 221 220 219 218
315 315 315 315 316 316 313 308 307 310 312 311 307 303 299 295 289 282 278 274 270 266 264 261 256 248 243 244 244 244 243 242 240 237 234 232 231 231 232 233 233 235 237 237 235 233 232 232 232 233 234 234 233 233 233 234 235 235 236 236 237 238 238 237 235 233 232 230 227 224 222 221 220 219 219 219 220 220 220 220 221 222 221 221 220
311 311 311 311 313 315 313 310 308 308 309 310 308 304 301 296 291 287 284 281 278 274 270 267 263 256 249 246 247 248 248 245 242 242 241 238 234 232 233 234 235 235 236 236 236 236 236 235 234 234 234 234 234 234 234 233 234 235 236 237 238 239 238 237 236 234 233 231 228 226 224 222 221 219 218 218 219 219 219 220 221 221 221 221 220
307 307 306 307 309 310 311 309 305 303 304 306 306 303 302 298 292 289 288 286 283 280 277 274 271 268 261 255 252 251 249 245 243 244 245 241 237 234 234 235 237 237 236 236 237 238 239 238 237 236 236 236 236 235 234 234 235 237 238 239 240 240 239 238 238 236 234 231 228 226 225 223 222 221 219 219 219 219 219 219 220 219 219 219 218
304 303 302 302 304 306 309 308 305 301 301 302 301 301 301 299 294 292 292 291 290 288 285 282 281 280 276 270 265 261 255 249 247 248 246 244 243 242 240 238 237 237 237 238 239 239 240 240 239 238 238 237 237 236 235 236 238 239 240 241 241 240 238 238 238 237 235 232 228 226 224 222 222 221 220 220 220 219 218 219 219 218 217 217 217
299 299 298 299 301 304 306 307 304 302 301 302 302 301 299 296 295 295 295 292 290 289 289 289 288 287 284 280 276 271 266 261 257 254 251 248 246 246 243 241 239 238 239 240 240 240 240 241 240 240 240 238 237 236 237 238 240 242 243 243 242 240 238 237 236 235 235 233 230 227 224 223 221 221 220 220 219 219 219 219 218 217 217 217 216